Weather reports worldwide

Advertisment
Sete, France (7641): temperature & dewpoint: 19.08.2019 07:00:00 - 25.08.2019 07:00:00 (CEST)Sete, France (7641): wind speed & gusts: 19.08.2019 07:00:00 - 25.08.2019 07:00:00 (CEST)Sete, France (7641): wind direction: 19.08.2019 07:00:00 - 25.08.2019 07:00:00 (CEST)Sete, France (7641): reduced air pressure: 19.08.2019 07:00:00 - 25.08.2019 07:00:00 (CEST)Sete, France (7641): visibility: 19.08.2019 07:00:00 - 25.08.2019 07:00:00 (CEST)Sete, France (7641): precipitation: 19.08.2019 07:00:00 - 25.08.2019 07:00:00 (CEST)
Date & Time tt [°C] td [°C] ff [km/h] ff [kn] fx [km/h] fx [kn] dd ppp [hPa] vv [km] rr [mm]
25.08.2019 07:00:00 20,8 20,3 16 9 25 14 NNE 1017,2 - 0,0
25.08.2019 06:00:00 21,2 20,5 16 9 24 13 NNE 1016,9 - 0,0
25.08.2019 05:00:00 21,3 20,5 15 8 21 12 N 1017,0 10 0,0
25.08.2019 04:00:00 21,6 20,6 9 5 13 7 NNE 1017,2 - 0,0
25.08.2019 03:00:00 22,1 20,9 3 2 11 6 E 1017,1 - 0,0
25.08.2019 02:00:00 22,1 20,0 5 3 10 5 S 1017,4 - 0,0
25.08.2019 01:00:00 22,5 17,8 0 0 9 5 N 1017,4 - 0,0
25.08.2019 00:00:00 23,0 17,5 5 3 19 10 W 1017,6 - 0,0
24.08.2019 23:00:00 23,1 18,6 8 4 14 8 W 1017,5 - 0,0
24.08.2019 22:00:00 23,2 18,9 8 5 23 12 W 1017,6 - 0,0
24.08.2019 21:00:00 23,0 19,4 13 7 27 14 WSW 1017,3 - 0,0
24.08.2019 20:00:00 23,4 20,0 17 9 30 16 SW 1017,3 15 0,0
24.08.2019 19:00:00 24,2 20,7 17 9 29 15 SSW 1017,4 - 0,0
24.08.2019 18:00:00 25,4 20,9 10 6 19 10 S 1017,9 - 0,0
24.08.2019 17:00:00 27,1 20,7 10 6 19 10 S 1018,1 15 0,0
24.08.2019 16:00:00 28,1 20,1 10 5 17 9 S 1018,5 - 0,0
24.08.2019 15:00:00 27,9 19,7 8 4 16 8 SSE 1018,7 - 0,0
24.08.2019 14:00:00 27,6 20,2 8 4 16 9 SSE 1018,9 15 0,0
24.08.2019 13:00:00 26,2 19,1 6 3 14 8 SE 1019,2 - 0,0
24.08.2019 12:00:00 25,5 18,7 6 3 15 8 E 1019,6 - 0,0
24.08.2019 11:00:00 25,4 18,1 9 5 18 10 E 1019,6 - 0,0
24.08.2019 10:00:00 24,3 18,0 8 5 19 10 ENE 1019,6 - 0,0
24.08.2019 09:00:00 22,7 17,2 12 7 22 12 NNE 1019,3 - 0,0
24.08.2019 08:00:00 21,0 16,4 14 7 22 12 N 1019,2 15 0,0
24.08.2019 07:00:00 20,2 17,2 14 7 22 12 NNE 1019,3 - 0,0
24.08.2019 06:00:00 20,5 18,4 13 7 21 11 N 1019,2 - 0,0
24.08.2019 05:00:00 20,6 18,7 12 6 18 10 N 1019,3 - 0,0
24.08.2019 04:00:00 20,7 18,8 11 6 18 10 NNE 1019,3 - 0,0
24.08.2019 03:00:00 21,2 19,8 12 6 19 10 NNE 1019,5 - 0,0
24.08.2019 02:00:00 21,5 19,8 11 6 14 8 NNE 1019,6 - 0,0
24.08.2019 01:00:00 21,7 20,2 7 4 17 9 ENE 1019,5 - 0,0
24.08.2019 00:00:00 22,2 20,7 8 5 16 9 E 1019,4 - 0,0
23.08.2019 23:00:00 22,5 18,7 3 1 11 6 E 1019,0 - 0,0
23.08.2019 22:00:00 22,8 17,9 9 5 20 11 WSW 1018,7 - 0,0
23.08.2019 21:00:00 23,0 18,1 14 8 24 13 WSW 1017,9 - 0,0
23.08.2019 20:00:00 23,8 18,0 15 8 26 14 SW 1017,9 20 0,0
23.08.2019 19:00:00 24,6 17,8 16 9 29 16 SW 1017,9 - 0,0
23.08.2019 18:00:00 25,9 16,2 19 10 30 16 SSW 1017,9 - 0,0
23.08.2019 17:00:00 26,6 15,6 19 10 28 15 SSW 1017,9 20 0,0
23.08.2019 16:00:00 27,6 14,6 16 9 28 15 SSW 1018,3 - 0,0
23.08.2019 15:00:00 27,3 15,0 14 8 27 15 SSW 1018,9 - 0,0
23.08.2019 14:00:00 27,4 13,7 14 8 25 13 SSW 1019,1 20 0,0
23.08.2019 13:00:00 27,1 15,5 13 7 21 12 SSW 1019,6 - 0,0
23.08.2019 12:00:00 27,1 13,1 12 6 18 10 SSW 1019,7 - 0,0
23.08.2019 11:00:00 26,5 13,9 7 4 13 7 SSW 1019,9 - 0,0
23.08.2019 10:00:00 25,5 14,3 6 3 11 6 E 1020,0 - 0,0
23.08.2019 09:00:00 25,5 14,9 3 2 9 5 S 1020,0 - 0,0
23.08.2019 08:00:00 23,1 13,8 5 3 13 7 N 1020,0 20 0,0
23.08.2019 07:00:00 22,2 14,3 3 2 13 7 NNE 1019,8 - 0,0
23.08.2019 06:00:00 22,8 13,6 6 3 11 6 WNW 1019,9 - 0,0
23.08.2019 05:00:00 23,0 13,5 9 5 13 7 NW 1020,1 20 0,0
23.08.2019 04:00:00 23,0 13,5 4 2 19 10 NNW 1020,3 - 0,0
23.08.2019 03:00:00 23,7 13,8 12 7 22 12 NNE 1020,0 - 0,0
23.08.2019 02:00:00 24,0 14,4 11 6 16 9 NNE 1020,2 - 0,0
23.08.2019 01:00:00 24,1 15,6 8 4 17 9 NNE 1020,3 - 0,0
23.08.2019 00:00:00 25,1 14,5 11 6 16 9 N 1020,3 - 0,0
22.08.2019 23:00:00 25,2 15,2 6 3 17 9 NE 1020,3 - 0,0
22.08.2019 22:00:00 25,5 15,2 9 5 22 12 E 1020,3 - 0,0
22.08.2019 21:00:00 26,9 13,3 5 3 16 9 S 1019,7 - 0,0
22.08.2019 20:00:00 27,9 13,4 12 6 21 12 WSW 1018,9 - 0,0
22.08.2019 19:00:00 28,6 11,6 12 7 20 11 SW 1018,6 - 0,0
22.08.2019 18:00:00 29,0 11,5 13 7 29 16 SW 1018,6 - 0,0
22.08.2019 17:00:00 28,3 11,8 17 9 29 16 SW 1018,8 - 0,0
22.08.2019 16:00:00 28,0 11,9 16 9 29 16 SSW 1019,0 - 0,0
22.08.2019 15:00:00 26,8 12,1 13 7 22 12 SSW 1019,4 - 0,0
22.08.2019 14:00:00 29,6 12,1 8 4 15 8 SSE 1019,5 20 0,0
22.08.2019 13:00:00 27,2 11,2 10 5 17 9 S 1019,8 - 0,0
22.08.2019 12:00:00 25,5 11,6 4 2 23 12 E 1020,3 - 0,0
22.08.2019 11:00:00 23,6 11,9 9 5 22 12 NW 1020,3 20 0,0
22.08.2019 10:00:00 24,9 11,5 4 2 19 10 NNE 1020,2 - 0,0
22.08.2019 09:00:00 22,6 11,0 9 5 19 10 NNW 1020,0 - 0,0
22.08.2019 08:00:00 21,6 11,6 4 2 25 13 S 1019,6 20 0,0
22.08.2019 07:00:00 21,1 11,1 19 10 29 16 NNW 1019,2 - 0,0
22.08.2019 06:00:00 21,0 11,1 7 4 13 7 NW 1019,1 - 0,0
22.08.2019 05:00:00 21,3 11,9 7 4 23 12 WNW 1019,1 - 0,0
22.08.2019 04:00:00 21,4 12,5 16 8 23 13 NNW 1018,9 - 0,0
22.08.2019 03:00:00 22,4 11,8 17 9 26 14 NNW 1019,1 - 0,0
22.08.2019 02:00:00 22,2 12,7 16 9 24 13 NNW 1019,5 - 0,0
22.08.2019 01:00:00 22,7 12,9 14 8 24 13 N 1019,6 - 0,0
22.08.2019 00:00:00 23,1 13,6 14 8 22 12 N 1019,5 - 0,0
21.08.2019 23:00:00 23,8 13,9 10 5 23 13 ENE 1019,4 - 0,0
21.08.2019 22:00:00 24,8 12,4 9 5 17 9 E 1019,3 - 0,0
21.08.2019 21:00:00 24,7 14,2 3 2 10 5 S 1018,3 - 0,0
21.08.2019 20:00:00 26,5 9,4 8 4 18 10 WSW 1017,6 - 0,0
21.08.2019 19:00:00 26,8 11,7 12 7 23 12 WSW 1017,4 - 0,0
21.08.2019 18:00:00 27,1 9,9 14 7 25 13 SW 1017,6 - 0,0
21.08.2019 17:00:00 26,9 10,1 16 9 30 16 SSW 1017,7 20 0,0
21.08.2019 16:00:00 27,4 10,1 11 6 - - SSW 1018,2 - 0,0
21.08.2019 15:00:00 27,0 10,2 12 6 18 10 S 1018,4 - 0,0
21.08.2019 14:00:00 27,2 10,4 9 5 17 9 S 1019,0 18 0,0
21.08.2019 13:00:00 26,8 13,2 12 6 19 11 SSE 1019,5 - 0,0
21.08.2019 12:00:00 27,0 5,9 8 4 29 15 NNW 1020,0 - 0,0
21.08.2019 11:00:00 25,1 6,3 10 6 28 15 NNW 1020,0 - 0,0
21.08.2019 10:00:00 22,0 7,4 15 8 38 21 NW 1020,1 - 0,0
21.08.2019 09:00:00 19,4 7,5 22 12 39 21 NW 1020,6 - 0,0
21.08.2019 08:00:00 18,5 7,3 25 13 41 22 NW 1020,6 15 0,0
21.08.2019 07:00:00 17,1 8,2 19 11 27 15 WNW 1020,4 - 0,0
21.08.2019 06:00:00 17,8 8,9 17 9 36 20 NW 1020,3 - 0,0
21.08.2019 05:00:00 18,0 8,5 26 14 41 22 NW 1020,5 20 0,0
21.08.2019 04:00:00 18,0 9,1 22 12 38 21 NW 1020,6 - 0,0
21.08.2019 03:00:00 18,4 10,0 23 12 44 24 NW 1020,7 - 0,0
21.08.2019 02:00:00 18,8 10,1 24 13 38 20 NW 1021,1 - 0,0
21.08.2019 01:00:00 19,3 10,8 18 10 33 18 WNW 1021,8 - 0,0
21.08.2019 00:00:00 19,7 11,2 14 8 36 20 NW 1022,2 - 0,0
20.08.2019 23:00:00 20,5 10,9 20 11 34 19 NNW 1022,2 - 0,0
20.08.2019 22:00:00 21,4 12,8 16 8 25 14 N 1021,9 - 0,0
20.08.2019 21:00:00 22,7 12,9 9 5 19 10 NNE 1021,6 - 0,0
20.08.2019 20:00:00 22,9 13,7 8 4 26 14 NNW 1021,2 - 0,0
20.08.2019 19:00:00 23,3 13,7 12 6 33 18 N 1020,7 - 0,0
20.08.2019 18:00:00 23,8 14,2 19 10 39 21 N 1020,7 - 0,0
20.08.2019 17:00:00 21,5 14,9 24 13 40 21 N 1021,1 - 0,0
20.08.2019 16:00:00 20,5 14,6 18 10 36 19 NW 1021,2 - 0,0
20.08.2019 15:00:00 20,8 14,2 21 11 41 22 NW 1021,2 - 0,0
20.08.2019 14:00:00 21,8 13,4 19 10 40 22 NNW 1021,0 - 0,0
20.08.2019 13:00:00 22,2 14,1 17 9 39 21 NW 1020,8 - 0,0
20.08.2019 12:00:00 23,4 14,4 14 8 40 22 NNW 1020,3 - 0,0
20.08.2019 11:00:00 22,7 14,3 20 11 40 22 NNW 1020,0 20 0,0
20.08.2019 10:00:00 22,0 14,4 16 9 32 18 NW 1019,3 - 0,0
20.08.2019 09:00:00 20,4 14,1 9 5 27 15 NW 1019,3 - 0,0
20.08.2019 08:00:00 19,5 15,6 11 6 28 15 W 1019,3 - 0,0
20.08.2019 07:00:00 20,0 15,6 4 2 27 15 NW 1018,2 - 0,0
20.08.2019 06:00:00 20,4 15,2 11 6 21 11 NW 1017,5 - 0,0
20.08.2019 05:00:00 20,7 14,6 14 8 22 12 NW 1017,7 - 0,0
20.08.2019 04:00:00 21,3 14,0 14 8 26 14 NNW 1018,1 - 0,0
20.08.2019 03:00:00 21,8 13,9 13 7 32 17 NW 1018,3 - 0,0
20.08.2019 02:00:00 22,3 14,9 13 7 28 15 NNW 1018,5 - 0,0
20.08.2019 01:00:00 22,9 14,5 15 8 38 20 NNW 1018,3 - 0,0
20.08.2019 00:00:00 22,9 13,4 28 15 40 22 NNW 1017,8 - 0,0
19.08.2019 23:00:00 23,4 13,3 20 11 34 19 NW 1017,8 - 0,0
19.08.2019 22:00:00 24,0 14,1 16 8 28 15 NW 1017,5 - 0,0
19.08.2019 21:00:00 24,3 14,4 12 7 28 15 W 1017,0 - 0,0
19.08.2019 20:00:00 24,8 15,4 13 7 26 14 WSW 1017,0 - 0,0
19.08.2019 19:00:00 25,1 16,0 13 7 22 12 WSW 1016,6 - 0,0
19.08.2019 18:00:00 23,7 19,0 4 2 15 8 SSW 1016,7 - 0,0
19.08.2019 17:00:00 24,5 20,6 10 5 16 9 S 1016,8 - 0,0
19.08.2019 16:00:00 24,9 19,5 5 3 14 7 S 1016,7 - 0,0
19.08.2019 15:00:00 26,3 19,9 6 3 18 10 SSE 1017,2 - 0,0
19.08.2019 14:00:00 25,3 18,7 6 3 15 8 N 1017,0 - 0,0
19.08.2019 13:00:00 24,2 18,2 8 4 25 13 NNE 1017,2 - 0,0
19.08.2019 12:00:00 23,8 17,3 14 8 34 18 NNW 1017,1 - 0,0
19.08.2019 11:00:00 22,1 17,7 16 9 31 17 NW 1016,8 - 0,0
19.08.2019 10:00:00 20,0 17,2 20 11 38 20 NW 1016,6 - 0,0
19.08.2019 09:00:00 19,1 17,6 23 12 41 22 NNW 1016,4 - 1,6
19.08.2019 08:00:00 20,4 19,4 20 11 33 18 NNW 1016,2 12 0,2
19.08.2019 07:00:00 21,2 20,5 11 6 15 8 W 1015,4 12 0,0

tt = temperature
td = dewpoint
ff = wind speed
fx = gusts
dd = wind direction
ppp = reduced air pressure
vv = visibility
rr = precipitation

Next stations